Location: Stoke Bliss
(52.2667°N, 2.5167°W)
Time: 04:43:13
(UTC+00:00)

USA 305 - Visible Passes

Search period start: 15 June 2021 00:00
Search period end: 25 June 2021 00:00
Orbit: 567 x 573 km, 54.0° (Epoch: 07 May)

Date Brightness Start Highest point End Pass type
(mag) Time Alt. Az. Time Alt. Az. Time Alt. Az.
15 Jun 5.2 02:44:34 10° SSE 02:46:44 14° SE 02:48:54 10° E visible
16 Jun 4.8 02:44:31 10° S 02:47:31 19° SE 02:50:33 10° E visible
17 Jun 4.3 02:44:51 10° SSW 02:48:23 26° SE 02:51:55 10° E visible
18 Jun 3.9 02:45:24 10° SSW 02:49:15 34° SE 02:53:06 10° ENE visible
19 Jun 5.1 01:09:52 10° SE 01:11:06 11° SE 01:12:27 10° ESE visible
19 Jun 3.5 02:46:07 10° SW 02:50:10 44° SSE 02:54:14 10° ENE visible
20 Jun 4.7 01:10:32 14° SSE 01:11:51 16° SE 01:14:29 10° E visible
20 Jun 3.1 02:46:56 10° SW 02:51:06 57° SSE 02:55:17 10° ENE visible
21 Jun 4.4 01:11:07 18° SSE 01:12:39 22° SE 01:15:56 10° E visible
21 Jun 2.9 02:47:51 10° WSW 02:52:05 72° SSE 02:56:20 10° ENE visible
22 Jun 3.9 01:11:39 21° S 01:13:29 29° SE 01:17:12 10° E visible
22 Jun 2.9 02:48:49 10° WSW 02:53:05 86° SSE 02:57:22 10° ENE visible
23 Jun 3.5 01:12:05 21° SSW 01:14:22 38° SE 01:18:20 10° ENE visible
23 Jun 3.0 02:49:50 10° WSW 02:54:06 83° NNW 02:58:23 10° ENE visible
23 Jun 4.9 23:36:25 13° SE 23:36:25 13° SE 23:38:12 10° E visible
24 Jun 3.1 01:12:27 19° SW 01:15:16 50° SSE 01:19:24 10° ENE visible
24 Jun 3.1 02:50:53 10° W 02:55:09 75° N 02:59:25 10° ENE visible
24 Jun 4.4 23:36:41 19° SE 23:36:52 19° SE 23:39:51 10° E visible
